Regional Weather Roundup
Issued by NWS Little Rock, AR

Home | Current Version | Previous Version | Graphics & Text | Print | Product List | Glossary On
Versions: 1 2 3 4 5 6 7 8 9 10 11 12 13 14 15 16 17 18 19 20 21 22 23 24 25 26 27 28 29 30 31
000
ASUS44 KLZK 300905
RWRLZK

WEATHER ROUNDUP FOR ARKANSAS
NATIONAL WEATHER SERVICE LITTLE ROCK AR
400 AM CDT SUN APR 30 2017

NOTE: "FAIR" INDICATES FEW OR NO CLOUDS BELOW 12,000 FEET WITH NO
SIGNIFICANT WEATHER AND/OR OBSTRUCTIONS TO VISIBILITY.

ARZ001-003-010-029-301000-
NORTHWEST ARKANSAS

CITY           SKY/WX    TMP DP  RH WIND       PRES   REMARKS
FAYETTEVILLE   CLOUDY    64  64 100 CALM      29.59F
FORT SMITH     LGT RAIN  58  55  90 W13       29.64R
HARRISON       TSTM      62  62 100 E5        29.64F
BENTONVILLE    CLOUDY    64  63  94 SE8       29.61R
ROGERS         LGT RAIN  64  63  94 E7        29.60S
SILOAM SPGS    CLOUDY    57  54  88 SW21G30   29.60R
HIGHFILL       LGT RAIN  65  65 100 SE10      29.58F FOG
$$

ARZ004-005-016-301000-
NORTH CENTRAL ARKANSAS

CITY           SKY/WX    TMP DP  RH WIND       PRES   REMARKS
BATESVILLE     CLOUDY    64  63  94 E13       29.69F
FLIPPIN        CLOUDY    64  61  88 E9        29.62R
MTN HOME       LGT RAIN  63  63 100 S8        29.64R
$$

ARZ040-041-301000-
WEST CENTRAL ARKANSAS

CITY           SKY/WX    TMP DP  RH WIND       PRES   REMARKS
MENA           NOT AVBL
$$

ARZ009-017-025-026-028-301000-
NORTHEAST ARKANSAS

CITY           SKY/WX    TMP DP  RH WIND       PRES   REMARKS
JONESBORO      TSTM      63  62  97 N13       29.74F FOG
NEWPORT        TSTM      64  63  96 MISG        N/A  FOG
WALNUT RIDGE   CLOUDY    66  63  88 E13       29.74F
BLYTHEVILLE    TSTM      63  63 100 SE5       29.81F
$$

ARZ022-023-033-042-044-301000-
CENTRAL ARKANSAS

CITY           SKY/WX    TMP DP  RH WIND       PRES   REMARKS
LITTLE ROCK    LGT RAIN  66  66 100 E9        29.61F
N LITTLE ROCK    N/A     65  64  97 E3        29.61F
JACKSONVILLE   LGT RAIN  66  66 100 NE6       29.62F
CONWAY           N/A     66  64  94 E9        29.59F
SEARCY         CLOUDY    66  66 100 NE9       29.68F
CLINTON        DRIZZLE   64  64 100 E5        29.65F
$$

ARZ036-301000-
EAST ARKANSAS

CITY           SKY/WX    TMP DP  RH WIND       PRES   REMARKS
WEST MEMPHIS   CLOUDY    66  65  96 NE14      29.73F
$$

ARZ050-053-066-070-073-301000-
SOUTHWEST ARKANSAS

CITY           SKY/WX    TMP DP  RH WIND       PRES   REMARKS
ARKADELPHIA    CLOUDY    68  67  96 SW13      29.62R
CAMDEN         RAIN      68  64  88 W12G24    29.62R
TEXARKANA      CLOUDY    56  54  93 W15       29.65F
EL DORADO      LGT RAIN  68  66  93 SW7G21    29.66R FOG
DE QUEEN       CLOUDY    56  54  93 W14       29.67S
$$

ARZ056-057-069-301000-
SOUTHEAST ARKANSAS

CITY           SKY/WX    TMP DP  RH WIND       PRES   REMARKS
PINE BLUFF     LGT RAIN  73  71  93 SE8       29.64S
STUTTGART      CLOUDY    70  59  68 N5        29.68R THUNDER
MONTICELLO     TSTM      74  71  91 SE12G17   29.66R FOG

$$






USA.gov is the U.S. government's official web portal to all federal, state and local government web resources and services.